Regional Weather Roundup
Issued by NWS Northern Indiana

Home | Current Version | Previous Version | Text Only | Print | Product List | Glossary Off
Versions: 1 2 3 4 5 6 7 8 9 10 11 12 13 14 15 16 17 18 19 20 21 22 23 24 25 26 27 28 29 30 31 32 33 34 35 36 37 38 39 40 41 42 43 44 45 46 47 48 49 50

000
ASUS43 KIWX 290210
RWRIWX

KIWX WEATHER ROUNDUP
NATIONAL WEATHER SERVICE NORTHERN INDIANA
1000 PM EDT SAT MAR 28 2015

NOTE: "FAIR" INDICATES FEW OR NO CLOUDS BELOW 12,000 FEET WITH NO
SIGNIFICANT WEATHER AND/OR OBSTRUCTIONS TO VISIBILITY.

* THESE STATIONS ARE NOT UNDER NWS QUALITY CONTROL. THEY ALSO MAY NOT
  REPORT WEATHER SUCH AS PRECIPITATION OR FOG.

INZ001>027-290300-
NORTHERN INDIANA

CITY           SKY/WX    TMP DP  RH WIND       PRES   REMARKS
GARY*          CLEAR     28  10  47 SE6       30.32R WCI  22
VALPARAISO     CLEAR     21  12  68 NE3       30.31S
MICHIGAN CITY* CLEAR     23  10  58 CALM      30.32S
LAPORTE*       CLEAR     24  15  69 CALM      30.32R
KNOX*            N/A     25   7  46 NE3       30.31R
SOUTH BEND     CLEAR     24  12  60 CALM      30.32R
GOSHEN         CLEAR     27  16  63 NW6       30.30R WCI  20
MONTICELLO*    CLEAR     28  15  57 CALM      30.31R
LOGANSPORT*    CLEAR     28  21  74 S3        30.33R
ROCHESTER*     CLEAR     32  18  55 CALM      30.32R
WARSAW*        CLEAR     27  12  54 CALM      30.30S
ANGOLA*        CLEAR     25  14  63 CALM      30.28S
FORT WAYNE     CLEAR     28  18  66 SW6       30.32R WCI  22
HUNTINGTON*    CLEAR     27  11  53 CALM      30.31S
PERU/GRISSOM   CLEAR     28  17  65 S3        30.30R
MARION*        CLEAR     28  19  70 S3        30.32S

$$
INZ028>050-290300-
CENTRAL INDIANA

CITY           SKY/WX    TMP DP  RH WIND       PRES   REMARKS
LAFAYETTE      CLEAR     27  12  53 E6        30.32R WCI  20
KOKOMO*          N/A     28  19  69 S5        30.32R WCI  23
MUNCIE*        CLEAR     30  14  51 CALM      30.32R
INDIANAPOLIS   CLEAR     32  13  45 E5        30.31R WCI  27

$$
MIZ043>046-050>051-056>058-064>065-071>073-077>080-290300-
SOUTHWEST LOWER MICHIGAN

CITY           SKY/WX    TMP DP  RH WIND       PRES   REMARKS
BATTLE CREEK   CLEAR     27  11  51 W7        30.29R WCI  19
BENTON HARBOR  CLEAR     21  11  65 CALM      30.31S
COLDWATER*     CLEAR     25  11  55 CALM      30.28S
HILLSDALE*     CLEAR     29   5  35 CALM      30.27S
HOLLAND        CLEAR     24  13  62 S5        30.31R WCI  18
GRAND RAPIDS   CLEAR     24  10  55 W6        30.29R WCI  17
KALAMAZOO      CLEAR     27  11  51 NW7       30.29R WCI  19
STURGIS*       CLEAR     27  12  54 CALM      30.29R
THREE RIVERS*  FAIR      28  14  56 NW7       30.30S WCI  21

$$
OHZ001>008-015>018-024>025-290300-
NORTHWEST OHIO

CITY           SKY/WX    TMP DP  RH WIND       PRES   REMARKS
WAUSEON*       FAIR      28  10  47 SW5       30.30R WCI  23
DEFIANCE       CLEAR     26  14  60 CALM      30.31R
FINDLAY        CLEAR     27  19  72 S6        30.30R WCI  20
TOLEDO EXPRESS CLEAR     25  10  53 SW3       30.30R
TOLEDO METCALF CLEAR     28  14  55 SW6       30.31R WCI  22
LIMA           CLEAR     28  16  60 S3        30.31R

$$
AND FOR LAKE MICHIGAN COASTAL AND OPEN LAKE BUOY OBSERVATIONS

STATION/POSITION TEMP    WIND        PRES    VSBY  WAVE
                 AIR SEA DIR/SP/G                  HT/PER
                 (F)     (DEG/KT/KT) (MB)    (MI)  (FT/S)
CALUMET HARBOR    30      90/  6/  8 1024.8F
MICHIGAN CITY     26      30/  3/  4   N/A
BURNS HARBOR      26     100/  6/  7 1026.8S
SAINT JOSEPH      24      CALM  /  1 1026.4F

$$
&&


USA.gov is the U.S. government's official web portal to all federal, state and local government web resources and services.